Regional Weather Roundup
Issued by NWS

Home | Current Version | Previous Version | Text Only | Print | Product List | Glossary On
Versions: 1 2 3 4 5 6 7 8 9 10 11 12 13 14 15 16 17 18 19 20 21 22 23 24 25 26 27 28 29 30 31 32 33 34 35 36 37 38 39 40 41 42 43 44 45 46 47 48 49 50
000
ASUS46 KPQR 181510
RWROR

OREGON REGIONAL WEATHER ROUNDUP
NATIONAL WEATHER SERVICE PORTLAND OR
700 AM PST WED JAN 18 2017

NOTE: "FAIR" INDICATES FEW OR NO CLOUDS BELOW 12,000 FEET WITH
NO SIGNIFICANT WEATHER AND/OR OBSTRUCTIONS TO VISIBILITY.

ORZ001>013-181600-
NORTHWEST OREGON


CITY           SKY/WX    TMP DP  RH WIND       PRES   REMARKS
ASTORIA        LGT RAIN  56  49  77 S28G49    29.29S
NEWPORT        LGT RAIN  52  52 100 S32G49    29.41F
PORTLAND       LGT RAIN  35  35 100 E23       29.44F WCI  23
VANCOUVER WA     N/A     36  33  89 SE15      29.44F WCI  27
SCAPPOOSE      LGT RAIN  36  36 100 SW5       29.42F FOG     WCI  32
HILLSBORO      LGT RAIN  51  48  89 S21G38    29.39F FOG
AURORA         LGT RAIN  48  47  96 S7        29.42F
MCMINNVILLE    CLOUDY    55  48  77 S32G47    29.40F
SALEM          CLOUDY    55  47  74 S24G36    29.41F
CORVALLIS        N/A     54  46  76 S21G26    29.46S
EUGENE         LGT RAIN  53  48  83 S24G35    29.49S
$$

ORZ021-028-181600-
SOUTHWEST OREGON


CITY           SKY/WX    TMP DP  RH WIND       PRES   REMARKS
NORTH BEND     CLOUDY    57  52  82 S26G41    29.50S
BROOKINGS      CLOUDY    51  50  96 S14G24    29.64F
ROSEBURG       CLOUDY    54  46  74 S9        29.57S
SEXTON SUMMIT  FOG       38  38 100 SE16G25   29.59F VSB 1/4 WCI  29
MEDFORD        LGT RAIN  49  40  71 S16G24    29.65F
$$

ORZ014>016-041-181600-
COLUMBIA GORGE


CITY           SKY/WX    TMP DP  RH WIND       PRES   REMARKS
TROUTDALE      CLOUDY    35  31  85 E33G43    29.45F WCI  21
THE DALLES     CLOUDY    25  22  88 W3        29.68R
$$

ORZ029>031-041-044-049-050-061>064-502-503-505>511-181600-
EASTERN OREGON


CITY           SKY/WX    TMP DP  RH WIND       PRES   REMARKS
REDMOND        CLOUDY    41  32  70 S14G25    29.63F
BEND           LGT RAIN  39  34  81 S9        29.62F WCI  33
PRINEVILLE     CLOUDY    43  34  70 SE22G29   29.63F
KLAMATH FALLS  CLOUDY    38  28  67 S23G40    29.79F WCI  27
LAKEVIEW       CLOUDY    34  27  75 S14       29.88F WCI  24
HERMISTON      CLOUDY    21  18  88 CALM      29.66F FOG
PENDLETON      CLOUDY    23  23 100 VRB5      29.60F FOG     WCI  17
JOHN DAY       CLOUDY    37  31  77 SE9       29.79R WCI  31
MEACHAM        MIX PCPN  26  21  81 MISG      29.71S
LA GRANDE      MOCLDY    27  19  74 S30G40    29.87S WCI  10
BAKER CITY     MOCLDY    20  16  84 E22G32    29.93F WCI   3
BURNS          CLOUDY    29  26  89 E6        29.85R WCI  23
ROME             N/A     27  24  89 CALM      29.88F
ONTARIO        CLOUDY    11   7  84 CALM      30.12F FOG
$$



USA.gov is the U.S. government's official web portal to all federal, state and local government web resources and services.